Time,TemperatureF,DewpointF,PressureIn,WindDirection,WindDirectionDegrees,WindSpeedMPH,WindSpeedGustMPH,Humidity,HourlyPrecipIn,Conditions,Clouds,dailyrainin,SoftwareType,DateUTC
2014-07-13 00:02:00,47.6,40.4,30.21,South,190,1.0,2.0,76,0.00,,,0.00,Wunderground v.1.15,2014-07-12 14:02:00,
2014-07-13 00:07:00,47.5,40.3,30.21,South,173,1.0,4.0,76,0.00,,,0.00,Wunderground v.1.15,2014-07-12 14:07:00,
2014-07-13 00:13:00,47.4,40.2,30.21,SW,232,4.0,4.0,76,0.00,,,0.00,Wunderground v.1.15,2014-07-12 14:13:00,
2014-07-13 00:18:00,47.3,40.1,30.21,SW,219,0.0,4.0,76,0.00,,,0.00,Wunderground v.1.15,2014-07-12 14:18:00,
2014-07-13 00:23:00,47.2,39.7,30.21,SW,215,0.0,3.0,75,0.00,,,0.00,Wunderground v.1.15,2014-07-12 14:23:00,
2014-07-13 00:29:00,47.1,39.6,30.21,SSW,208,0.0,3.0,75,0.00,,,0.00,Wunderground v.1.15,2014-07-12 14:29:00,
2014-07-13 00:34:00,46.9,39.4,30.21,SSW,195,0.0,1.0,75,0.00,,,0.00,Wunderground v.1.15,2014-07-12 14:34:00,
2014-07-13 00:39:00,46.8,39.3,30.21,ESE,107,2.0,3.0,75,0.00,,,0.00,Wunderground v.1.15,2014-07-12 14:39:00,
2014-07-13 00:44:00,46.7,39.2,30.21,SE,140,6.0,6.0,75,0.00,,,0.00,Wunderground v.1.15,2014-07-12 14:44:00,
2014-07-13 00:49:00,46.7,39.2,30.21,South,182,0.0,6.0,75,0.00,,,0.00,Wunderground v.1.15,2014-07-12 14:49:00,
2014-07-13 00:55:00,46.6,39.1,30.21,South,187,3.0,3.0,75,0.00,,,0.00,Wunderground v.1.15,2014-07-12 14:55:00,
2014-07-13 01:00:00,46.5,39.0,30.21,SSE,164,1.0,3.0,75,0.00,,,0.00,Wunderground v.1.15,2014-07-12 15:00:00,
2014-07-13 01:06:00,46.4,38.9,30.21,SW,217,3.0,3.0,75,0.00,,,0.00,Wunderground v.1.15,2014-07-12 15:06:00,
2014-07-13 01:11:00,46.3,38.8,30.22,SSW,194,2.0,2.0,75,0.00,,,0.00,Wunderground v.1.15,2014-07-12 15:11:00,
2014-07-13 01:16:00,46.2,38.7,30.22,SE,134,0.0,4.0,75,0.00,,,0.00,Wunderground v.1.15,2014-07-12 15:16:00,
2014-07-13 01:21:00,46.1,38.6,30.22,ESE,118,0.0,1.0,75,0.00,,,0.00,Wunderground v.1.15,2014-07-12 15:21:00,
2014-07-13 01:26:00,46.0,38.9,30.22,South,173,0.0,1.0,76,0.00,,,0.00,Wunderground v.1.15,2014-07-12 15:26:00,
2014-07-13 01:32:00,45.8,38.7,30.22,SSW,194,2.0,2.0,76,0.00,,,0.00,Wunderground v.1.15,2014-07-12 15:32:00,
2014-07-13 01:37:00,45.6,38.5,30.22,SSE,168,0.0,3.0,76,0.00,,,0.00,Wunderground v.1.15,2014-07-12 15:37:00,
2014-07-13 01:42:00,45.4,38.3,30.22,SW,224,2.0,3.0,76,0.00,,,0.00,Wunderground v.1.15,2014-07-12 15:42:00,
2014-07-13 01:48:00,45.3,37.8,30.22,SE,137,2.0,3.0,75,0.00,,,0.00,Wunderground v.1.15,2014-07-12 15:48:00,
2014-07-13 01:53:00,45.2,37.7,30.22,SSW,198,0.0,1.0,75,0.00,,,0.00,Wunderground v.1.15,2014-07-12 15:53:00,
2014-07-13 01:58:00,45.1,37.3,30.22,SSE,164,6.0,6.0,74,0.00,,,0.00,Wunderground v.1.15,2014-07-12 15:58:00,
2014-07-13 02:03:00,44.9,36.8,30.22,SSE,157,0.0,2.0,73,0.00,,,0.00,Wunderground v.1.15,2014-07-12 16:03:00,
2014-07-13 02:08:00,44.8,36.7,30.22,South,169,0.0,5.0,73,0.00,,,0.00,Wunderground v.1.15,2014-07-12 16:08:00,
2014-07-13 02:13:00,44.8,36.7,30.22,SSW,202,2.0,4.0,73,0.00,,,0.00,Wunderground v.1.15,2014-07-12 16:13:00,
2014-07-13 02:18:00,44.7,36.6,30.22,WSW,243,0.0,8.0,73,0.00,,,0.00,Wunderground v.1.15,2014-07-12 16:18:00,
2014-07-13 02:23:00,44.7,36.6,30.22,SW,215,2.0,4.0,73,0.00,,,0.00,Wunderground v.1.15,2014-07-12 16:23:00,
2014-07-13 02:28:00,44.6,36.5,30.22,SW,217,2.0,6.0,73,0.00,,,0.00,Wunderground v.1.15,2014-07-12 16:28:00,
2014-07-13 02:33:00,44.5,36.4,30.22,SW,236,0.0,3.0,73,0.00,,,0.00,Wunderground v.1.15,2014-07-12 16:33:00,
2014-07-13 02:38:00,44.4,36.3,30.22,South,169,0.0,5.0,73,0.00,,,0.00,Wunderground v.1.15,2014-07-12 16:38:00,
2014-07-13 02:43:00,44.3,36.2,30.22,South,187,1.0,3.0,73,0.00,,,0.00,Wunderground v.1.15,2014-07-12 16:43:00,
2014-07-13 02:48:00,44.3,35.5,30.22,SSW,194,0.0,5.0,71,0.00,,,0.00,Wunderground v.1.15,2014-07-12 16:48:00,
2014-07-13 02:53:00,44.3,35.5,30.22,SSW,194,3.0,4.0,71,0.00,,,0.00,Wunderground v.1.15,2014-07-12 16:53:00,
2014-07-13 02:58:00,44.4,35.2,30.22,WSW,258,2.0,5.0,70,0.00,,,0.00,Wunderground v.1.15,2014-07-12 16:58:00,
2014-07-13 03:03:00,44.4,35.2,30.23,WSW,249,3.0,4.0,70,0.00,,,0.00,Wunderground v.1.15,2014-07-12 17:03:00,
2014-07-13 03:08:00,44.4,35.2,30.23,SSW,212,1.0,7.0,70,0.00,,,0.00,Wunderground v.1.15,2014-07-12 17:08:00,
2014-07-13 03:13:00,44.3,35.5,30.23,SSW,197,0.0,2.0,71,0.00,,,0.00,Wunderground v.1.15,2014-07-12 17:13:00,
2014-07-13 03:18:00,44.3,35.5,30.23,SW,219,2.0,5.0,71,0.00,,,0.00,Wunderground v.1.15,2014-07-12 17:18:00,
2014-07-13 03:23:00,44.2,35.4,30.23,WSW,245,1.0,3.0,71,0.00,,,0.00,Wunderground v.1.15,2014-07-12 17:23:00,
2014-07-13 03:28:00,44.1,35.6,30.23,SSE,155,2.0,3.0,72,0.00,,,0.00,Wunderground v.1.15,2014-07-12 17:28:00,
2014-07-13 03:33:00,44.1,36.0,30.23,SSE,151,0.0,3.0,73,0.00,,,0.00,Wunderground v.1.15,2014-07-12 17:33:00,
2014-07-13 03:38:00,44.0,35.9,30.23,SW,219,2.0,6.0,73,0.00,,,0.00,Wunderground v.1.15,2014-07-12 17:38:00,